Date String (YYYY-MM-DD hh:mm:ss) UTC,Instrument flags,absolute air pressure of the measurement (hPa),sample flow rate (lpm),inlet stack bypass flow (lpm),air temperature of the measurement (°C),ambient temperature measured by the external sensor (°C),aerosol sample conditioner tube jacket temperature (°C),OPC LED temperature (°C),internal box temperature (°C),relative humidity of the measurement (%),span deviation,mass concentration of particles derived from Lorenz-Mie calculation of OPC scattering (μg/m³),mass concentration of particles derived from Lorenz-Mie calculation of OPC scattering (μg/m³),mass concentration of particles derived from Lorenz-Mie calculation of OPC scattering (μg/m³)
DateTimeUTC,F1_M11,P_M11,Q1_M11,Q2_M11,T1_M11,T2_M11,T3_M11,T4_M11,T5_M11,U1_M11,ZSPAN_M11,X0_M11,X2_M11,X1_M11
2023-09-02 10:00:00,SystemResetWarning,0832.7,5.01,000.00,027.7,024.9,000.0,036.3,029.1,25.1,0000.0,0009.99,0004.20,0003.41
2023-09-02 10:01:00,SystemResetWarning,0832.8,5.00,000.00,027.8,025.3,000.0,036.3,029.3,25.1,0000.0,0010.24,0004.22,0003.40
2023-09-02 10:02:00,SystemResetWarning,0832.7,5.00,000.00,027.8,025.7,000.0,036.3,029.4,25.1,0000.0,0010.40,0004.22,0003.39
2023-09-02 10:03:00,SystemResetWarning,0832.7,4.99,000.00,027.8,026.0,000.0,036.3,029.4,25.0,0000.0,0010.83,0004.20,0003.39
2023-09-02 10:04:00,SystemResetWarning,0832.7,4.99,000.00,027.9,026.3,000.0,036.3,029.5,25.0,0000.0,0011.08,0004.21,0003.39
2023-09-02 10:05:00,SystemResetWarning,0832.8,5.00,000.00,027.9,026.5,000.0,036.3,029.6,25.0,0000.0,0010.70,0004.23,0003.39
2023-09-02 10:06:00,SystemResetWarning,0832.8,5.00,000.00,027.9,026.7,000.0,036.3,029.6,24.9,0000.0,0010.40,0004.22,0003.38
2023-09-02 10:07:00,SystemResetWarning,0832.7,5.01,000.00,028.0,026.8,000.0,036.3,029.7,24.9,0000.0,0010.70,0004.24,0003.38
2023-09-02 10:08:00,SystemResetWarning,0832.9,5.00,000.00,028.0,027.0,000.0,036.4,029.8,24.8,0000.0,0011.58,0004.25,0003.38
2023-09-02 10:09:00,SystemResetWarning,0832.7,4.99,000.00,028.1,027.1,000.0,036.4,029.8,24.7,0000.0,0012.13,0004.26,0003.38
2023-09-02 10:10:00,SystemResetWarning,0832.8,4.99,000.00,028.1,027.2,000.0,036.4,029.8,24.6,0000.0,0011.72,0004.23,0003.38
2023-09-02 10:11:00,SystemResetWarning,0832.7,4.99,000.00,028.2,027.3,000.0,036.5,029.9,24.6,0000.0,0011.32,0004.21,0003.39
2023-09-02 10:12:00,SystemResetWarning,0832.7,5.00,000.00,028.2,027.3,000.0,036.5,029.9,24.5,0000.0,0011.69,0004.21,0003.40
2023-09-02 10:13:00,SystemResetWarning,0832.7,5.00,000.00,028.3,027.1,000.0,036.5,029.9,24.4,0000.0,0011.56,0004.22,0003.41
2023-09-02 10:14:00,SystemResetWarning,0832.7,4.99,000.00,028.2,025.6,000.0,036.4,029.5,24.5,0000.0,0011.66,0004.24,0003.42
2023-09-02 10:15:00,SystemResetWarning,0832.7,5.00,000.00,028.1,024.8,000.0,036.3,029.3,24.6,0000.0,0011.37,0004.25,0003.42
2023-09-02 10:16:00,SystemResetWarning,0832.7,5.00,000.00,028.0,024.9,000.0,036.3,029.3,24.7,0000.0,0011.88,0004.27,0003.43
2023-09-02 10:17:00,SystemResetWarning,0832.6,5.01,000.00,027.9,025.2,000.0,036.4,029.3,24.8,0000.0,0011.89,0004.28,0003.43
2023-09-02 10:18:00,SystemResetWarning,0832.7,5.00,000.00,027.9,025.5,000.0,036.4,029.4,24.8,0000.0,0011.86,0004.27,0003.43
2023-09-02 10:19:00,SystemResetWarning,0832.7,5.00,000.00,028.0,025.8,000.0,036.4,029.5,24.8,0000.0,0010.83,0004.23,0003.43
2023-09-02 10:20:00,SystemResetWarning,0832.7,4.99,000.00,028.0,026.1,000.0,036.4,029.6,24.7,0000.0,0010.44,0004.23,0003.43
2023-09-02 10:21:00,SystemResetWarning,0832.7,5.00,000.00,028.0,026.4,000.0,036.4,029.6,24.7,0000.0,0010.27,0004.22,0003.42
2023-09-02 10:22:00,SystemResetWarning,0832.7,5.00,000.00,028.1,026.6,000.0,036.4,029.7,24.7,0000.0,0009.89,0004.17,0003.42
2023-09-02 10:23:00,SystemResetWarning,0832.7,5.00,000.00,028.1,026.8,000.0,036.5,029.7,24.7,0000.0,0009.30,0004.14,0003.41
2023-09-02 10:24:00,SystemResetWarning,0832.7,5.01,000.00,028.1,026.9,000.0,036.5,029.8,24.7,0000.0,0009.38,0004.12,0003.41
2023-09-02 10:25:00,SystemResetWarning,0832.7,5.00,000.00,028.2,027.1,000.0,036.5,029.9,24.6,0000.0,0009.59,0004.07,0003.40
2023-09-02 10:26:00,SystemResetWarning,0832.8,5.00,000.00,028.2,027.2,000.0,036.5,029.9,24.6,0000.0,0009.86,0004.09,0003.41
2023-09-02 10:27:00,SystemResetWarning,0832.8,5.00,000.00,028.3,027.3,000.0,036.6,030.0,24.5,0000.0,0009.82,0004.10,0003.41
2023-09-02 10:28:00,SystemResetWarning,0832.7,4.99,000.00,028.3,027.4,000.0,036.6,030.0,24.4,0000.0,0010.01,0004.09,0003.41
2023-09-02 10:29:00,SystemResetWarning,0832.8,4.99,000.00,028.3,026.4,000.0,036.5,029.7,24.4,0000.0,0010.13,0004.14,0003.42
2023-09-02 10:30:00,SystemResetWarning,0832.7,5.00,000.00,028.2,025.1,000.0,036.5,029.3,24.6,0000.0,0010.24,0004.13,0003.41
2023-09-02 10:31:00,SystemResetWarning,0832.8,5.00,000.00,028.1,024.9,000.0,036.4,029.3,24.7,0000.0,0010.40,0004.12,0003.41
2023-09-02 10:32:00,SystemResetWarning,0832.9,5.01,000.00,028.0,025.1,000.0,036.4,029.3,24.7,0000.0,0010.44,0004.13,0003.42
2023-09-02 10:33:00,SystemResetWarning,0832.7,5.01,000.00,028.0,025.4,000.0,036.4,029.4,24.7,0000.0,0010.74,0004.16,0003.43
2023-09-02 10:34:00,SystemResetWarning,0832.7,5.00,000.00,028.0,025.8,000.0,036.5,029.5,24.7,0000.0,0011.18,0004.22,0003.44
2023-09-02 10:35:00,SystemResetWarning,0832.8,5.00,000.00,028.0,026.1,000.0,036.5,029.6,24.7,0000.0,0011.42,0004.23,0003.44
2023-09-02 10:36:00,SystemResetWarning,0832.8,5.00,000.00,028.1,026.3,000.0,036.5,029.6,24.6,0000.0,0010.43,0004.22,0003.46
2023-09-02 10:37:00,SystemResetWarning,0832.8,5.00,000.00,028.1,026.6,000.0,036.5,029.7,24.6,0000.0,0010.25,0004.19,0003.45
2023-09-02 10:38:00,SystemResetWarning,0832.8,4.99,000.00,028.1,026.8,000.0,036.5,029.8,24.6,0000.0,0009.78,0004.13,0003.43
2023-09-02 10:39:00,SystemResetWarning,0832.8,4.99,000.00,028.2,026.9,000.0,036.5,029.8,24.6,0000.0,0009.41,0004.12,0003.43
2023-09-02 10:40:00,SystemResetWarning,0832.8,5.01,000.00,028.2,027.1,000.0,036.5,029.9,24.5,0000.0,0009.77,0004.07,0003.43
2023-09-02 10:41:00,SystemResetWarning,0832.8,5.01,000.00,028.2,027.2,000.0,036.6,029.9,24.4,0000.0,0010.27,0004.10,0003.43
2023-09-02 10:42:00,SystemResetWarning,0832.8,5.01,000.00,028.3,027.3,000.0,036.6,030.0,24.4,0000.0,0010.66,0004.11,0003.44
2023-09-02 10:43:00,SystemResetWarning,0832.8,4.98,000.00,028.3,027.0,000.0,036.6,029.9,24.3,0000.0,0010.81,0004.15,0003.44
2023-09-02 10:44:00,SystemResetWarning,0832.8,5.00,000.00,028.3,025.5,000.0,036.5,029.5,24.4,0000.0,0010.69,0004.18,0003.44
2023-09-02 10:45:00,SystemResetWarning,0832.7,5.01,000.00,028.2,024.9,000.0,036.4,029.4,24.6,0000.0,0010.28,0004.13,0003.44
2023-09-02 10:46:00,SystemResetWarning,0832.8,5.01,000.00,028.1,025.0,000.0,036.4,029.3,24.7,0000.0,0010.10,0004.13,0003.43
2023-09-02 10:47:00,SystemResetWarning,0832.8,5.00,000.00,028.0,025.3,000.0,036.5,029.4,24.8,0000.0,0010.67,0004.13,0003.43
2023-09-02 10:48:00,SystemResetWarning,0832.8,5.00,000.00,028.0,025.6,000.0,036.5,029.5,24.9,0000.0,0011.46,0004.16,0003.43
2023-09-02 10:49:00,SystemResetWarning,0832.7,5.00,000.00,028.0,025.9,000.0,036.5,029.5,24.9,0000.0,0011.53,0004.20,0003.44
2023-09-02 10:50:00,SystemResetWarning,0832.8,5.00,000.00,028.1,026.2,000.0,036.5,029.6,24.9,0000.0,0012.12,0004.17,0003.43
2023-09-02 10:51:00,SystemResetWarning,0832.8,5.00,000.00,028.1,026.5,000.0,036.5,029.7,24.9,0000.0,0012.41,0004.17,0003.43
2023-09-02 10:52:00,SystemResetWarning,0832.8,5.00,000.00,028.1,026.7,000.0,036.5,029.8,24.8,0000.0,0011.98,0004.19,0003.43
2023-09-02 10:53:00,SystemResetWarning,0832.8,5.00,000.00,028.2,026.9,000.0,036.5,029.8,24.7,0000.0,0011.31,0004.16,0003.42
2023-09-02 10:54:00,SystemResetWarning,0832.8,5.01,000.00,028.2,027.0,000.0,036.6,029.9,24.7,0000.0,0011.01,0004.14,0003.43
2023-09-02 10:55:00,SystemResetWarning,0832.8,5.00,000.00,028.2,027.1,000.0,036.6,029.9,24.6,0000.0,0010.96,0004.13,0003.42
2023-09-02 10:56:00,SystemResetWarning,0832.8,4.99,000.00,028.3,027.2,000.0,036.6,030.0,24.5,0000.0,0010.95,0004.14,0003.43
2023-09-02 10:57:00,SystemResetWarning,0832.8,4.99,000.00,028.3,027.3,000.0,036.6,030.0,24.4,0000.0,0010.94,0004.15,0003.43
2023-09-02 10:58:00,SystemResetWarning,0832.9,4.99,000.00,028.4,026.9,000.0,036.6,029.9,24.4,0000.0,0011.47,0004.16,0003.43
2023-09-02 10:59:00,SystemResetWarning,0832.7,5.00,000.00,028.3,025.1,000.0,036.5,029.4,24.5,0000.0,0010.81,0004.17,0003.42
